Location: Brown Observing Site
(43.4354°N, 116.3366°W)
Time: 01:47:04
(UTC-06:00)

Envisat - Pass Details

Date: 27 March 2019
Orbit: 764 x 766 km, 98.2° (Epoch: 24 April)

Event Time Altitude Azimuth Distance (km) Brightness Sun altitude
Rises 21:12:23 0° 195° (SSW) 3,218 6.2 -12.7°
Reaches altitude 10° 21:15:00 10° 208° (SSW) 2,296 5.6 -13.1°
Maximum altitude 21:19:17 27° 266° (W) 1,429 5.2 -13.9°
Drops below altitude 10° 21:23:36 10° 324° (NW) 2,310 6.3 -14.6°
Sets 21:26:15 0° 336° (NNW) 3,241 6.9 -15.1°
